CZ-6A DEB, 55550

Orbit data source: Space-Track

CZ-6A DEB, 55550 is space debris in SSO originally from a launch on Fri, 11 Nov 2022 UTC launched from the Taiyaun Space Center, China (TSC). Debris objects in space refer to the collection of defunct objects orbiting the Earth. Examples of debris include non-operational satellites, rocket bodies, and fragments generated from explosions, collisions, or faulty payload assembly.

Loading next visibility...
Identifier
55550, 2022-151YY
Orbit
SSO
Country
Flag of CNCN / PRC
Related business
Manufacturer
SAST
Mission
Spacecraft
Bus & Motor
Unknown
Mass
Unknown
Launch date (UTC)
2022-11-11 (3 years ago)
Launch vehicle
Unknown
Launch site
Taiyaun Space Center, China (TSC)
Object type
Payload
Rocket body
Debris
Shape & HBR
Unknown shape, 0.1 m
Radar Cross Section
Small (<0.1 m²)

Expand to show TLE details & history
Last TLE update: 2 days ago

TLE from 2 days ago
0 CZ-6A DEB
1 55550U 22151YY  26129.13928934  .00010958  00000-0  16636-2 0  9997
2 55550  98.6229 194.2522 0076324  44.6663 316.0657 14.72279769178372
Epoch: 2026-05-09T03:20Z
TLE epoch observation values (Epoch: 2026-05-09T03:20:34.598Z)
Latitude
-0.00002°
Longitude
-82.85297°
Altitude
618.329 km
Speed
7.57 km/s
True Right ascension
12h 57m 00s
True Declination
0° 00' 00"
Sunlit
Object was in full shadow at epoch
Visualization orbit readout
Latitude
Unknown
Longitude
Unknown
Altitude
Unknown
Speed
Unknown
Apparent Right ascension
Unknown
Apparent Declination
Unknown
Sunlit
N/A
Visualization observer readout
Local Sidereal Time
04:34:16
Azimuth
Unknown
Elevation
Unknown
Doppler factor
Unknown
Orbital elements
Apogee altitude
704.532 km
Perigee altitude
597.236 km
Semi-major axis
7,029.021 km
Eccentricity
0.00763
Inclination
98.6229°
RAAN
194.2522°
Arg. of periapsis
44.6663°
True anomaly
315.45468°
Mean anomaly
316.0657°
Eccentric anomaly
315.76061°
Mean motion
3.68299 °/min
Orbital period
97.75 mins
BSTAR
0.0016636
Loading maneuver chart data...
Computing Atmospheric mass density...
Loading historical data...
Loading historical data...
Loading historical data...
Loading historical data...
Loading historical data...
Loading historical data...
Loading historical data...

Documentation

Showing up to 5 results
|